Вернуться в каталог

STARLINK-11275

АктивенСвязьVLEO
NORAD 61579·PAYLOAD·🇺🇸 United States

Запущен Oct 18, 2024 с Cape Canaveral Space Force Station

Loading…

Ближайшие Пролёты (ближайшие 24 часа)

TLE

СвежийSource: CelesTrak SupGP

Эпоха: Sep 14, 2026, 21:30 UTC

1 61579C 24187F   26257.89631944 -.00002051  00000+0 -16891-4 0  2571
2 61579  53.1574  83.2730 0001218  82.4795 179.7625 15.69708850    12

Отслеживайте STARLINK-11275 в реальном времени с AllMySat

Download on the App Store